Location: Unspecified
(0.0000°N, 0.0000°E)
Time: 21:10:02
(UTC+02:00)

Hubble Space Telescope - Visible Passes

Search period start: 15 June 2021 00:00
Search period end: 25 June 2021 00:00
Orbit: 535 x 539 km, 28.5° (Epoch: 15 June)

Date Brightness Start Highest point End Pass type
(mag) Time Alt. Az. Time Alt. Az. Time Alt. Az.
18 Jun 3.7 22:22:48 10° NNW 22:23:11 12° NNW 22:23:11 12° NNW visible
19 Jun 3.2 22:11:23 10° NNW 22:12:49 18° NNW 22:12:49 18° NNW visible
20 Jun 2.5 22:00:07 10° NW 22:02:30 27° N 22:02:30 27° N visible
21 Jun 1.6 21:48:58 10° NW 21:52:12 43° N 21:52:12 43° N visible
22 Jun 0.7 21:37:54 10° NW 21:41:57 73° NNE 21:41:57 73° NNE visible
23 Jun 0.7 21:26:57 10° WNW 21:31:03 78° SSW 21:31:43 60° SE visible
24 Jun 1.1 21:16:05 10° WNW 21:20:06 54° SSW 21:21:30 35° SSE visible
